Year,Month,Day,Hour,Minute,Value (Times are PST for temperature in C)
2016,04,08,00,00,9.80
2016,04,08,00,01,9.80
2016,04,08,00,02,9.80
2016,04,08,00,03,9.80
2016,04,08,00,04,9.80
2016,04,08,00,05,9.80
2016,04,08,00,06,9.70
2016,04,08,00,07,9.70
2016,04,08,00,08,9.70
2016,04,08,00,09,9.70
2016,04,08,00,10,9.70
2016,04,08,00,11,9.70
2016,04,08,00,12,9.70
2016,04,08,00,13,9.70
2016,04,08,00,14,9.70
2016,04,08,00,15,9.60
2016,04,08,00,16,9.60
2016,04,08,00,17,9.60
2016,04,08,00,18,9.60
2016,04,08,00,19,9.60
2016,04,08,00,20,9.60
2016,04,08,00,21,9.60
2016,04,08,00,22,9.60
2016,04,08,00,23,9.60
2016,04,08,00,24,9.60
2016,04,08,00,25,9.50
2016,04,08,00,26,9.50
2016,04,08,00,27,9.50
2016,04,08,00,28,9.50
2016,04,08,00,29,9.50
2016,04,08,00,30,9.40
2016,04,08,00,31,9.40
2016,04,08,00,32,9.40
2016,04,08,00,33,9.40
2016,04,08,00,34,9.40
2016,04,08,00,35,9.40
2016,04,08,00,36,9.30
2016,04,08,00,37,9.30
2016,04,08,00,38,9.30
2016,04,08,00,39,9.30
2016,04,08,00,40,9.30
2016,04,08,00,41,9.30
2016,04,08,00,42,9.30
2016,04,08,00,43,9.30
2016,04,08,00,44,9.20
2016,04,08,00,45,9.20
2016,04,08,00,46,9.20
2016,04,08,00,47,9.20
2016,04,08,00,48,9.20
2016,04,08,00,49,9.20
2016,04,08,00,50,9.20
2016,04,08,00,51,9.20
2016,04,08,00,52,9.10
2016,04,08,00,53,9.10
2016,04,08,00,54,9.10
2016,04,08,00,55,9.10
2016,04,08,00,56,9.10
2016,04,08,00,57,9.10
2016,04,08,00,58,9.10
2016,04,08,00,59,9.10
2016,04,08,01,00,9.00
2016,04,08,01,01,9.00
2016,04,08,01,02,9.00
2016,04,08,01,03,9.00
2016,04,08,01,04,8.90
2016,04,08,01,05,8.90
2016,04,08,01,06,8.90
2016,04,08,01,07,8.90
2016,04,08,01,08,8.90
2016,04,08,01,09,8.90
2016,04,08,01,10,8.90
2016,04,08,01,11,8.90
2016,04,08,01,12,8.90
2016,04,08,01,13,8.90
2016,04,08,01,14,8.80
2016,04,08,01,15,8.80
2016,04,08,01,16,8.80
2016,04,08,01,17,8.80
2016,04,08,01,18,8.80
2016,04,08,01,19,8.80
2016,04,08,01,20,8.80
2016,04,08,01,21,8.80
2016,04,08,01,22,8.70
2016,04,08,01,23,8.70
2016,04,08,01,24,8.70
2016,04,08,01,25,8.70
2016,04,08,01,26,8.70
2016,04,08,01,27,8.70
2016,04,08,01,28,8.70
2016,04,08,01,29,8.60
2016,04,08,01,30,8.60
2016,04,08,01,31,8.60
2016,04,08,01,32,8.60
2016,04,08,01,33,8.60
2016,04,08,01,34,8.60
2016,04,08,01,35,8.60
2016,04,08,01,36,8.60
2016,04,08,01,37,8.60
2016,04,08,01,38,8.50
2016,04,08,01,39,8.50
2016,04,08,01,40,8.50
2016,04,08,01,41,8.50
2016,04,08,01,42,8.40
2016,04,08,01,43,8.40
2016,04,08,01,44,8.40
2016,04,08,01,45,8.40
2016,04,08,01,46,8.40
2016,04,08,01,47,8.40
2016,04,08,01,48,8.30
2016,04,08,01,49,8.30
2016,04,08,01,50,8.30
2016,04,08,01,51,8.30
2016,04,08,01,52,8.30
2016,04,08,01,53,8.20
2016,04,08,01,54,8.20
2016,04,08,01,55,8.20
2016,04,08,01,56,8.20
2016,04,08,01,57,8.20
2016,04,08,01,58,8.20
2016,04,08,01,59,8.20
2016,04,08,02,00,8.20
2016,04,08,02,01,8.20
2016,04,08,02,02,8.20
2016,04,08,02,03,8.20
2016,04,08,02,04,8.10
2016,04,08,02,05,8.10
2016,04,08,02,06,8.10
2016,04,08,02,07,8.10
2016,04,08,02,08,8.10
2016,04,08,02,09,8.10
2016,04,08,02,10,8.10
2016,04,08,02,11,8.10
2016,04,08,02,12,8.00
2016,04,08,02,13,8.00
2016,04,08,02,14,8.00
2016,04,08,02,15,7.90
2016,04,08,02,16,7.90
2016,04,08,02,17,7.90
2016,04,08,02,18,7.90
2016,04,08,02,19,7.90
2016,04,08,02,20,7.90
2016,04,08,02,21,7.90
2016,04,08,02,22,7.90
2016,04,08,02,23,7.90
2016,04,08,02,24,7.80
2016,04,08,02,25,7.80
2016,04,08,02,26,7.80
2016,04,08,02,27,7.80
2016,04,08,02,28,7.80
2016,04,08,02,29,7.80
2016,04,08,02,30,7.80
2016,04,08,02,31,7.80
2016,04,08,02,32,7.80
2016,04,08,02,33,7.80
2016,04,08,02,34,7.80
2016,04,08,02,35,7.80
2016,04,08,02,36,7.80
2016,04,08,02,37,7.80
2016,04,08,02,38,7.80
2016,04,08,02,39,7.80
2016,04,08,02,40,7.80
2016,04,08,02,41,7.80
2016,04,08,02,42,7.70
2016,04,08,02,43,7.70
2016,04,08,02,44,7.70
2016,04,08,02,45,7.70
2016,04,08,02,46,7.70
2016,04,08,02,47,7.70
2016,04,08,02,48,7.70
2016,04,08,02,49,7.60
2016,04,08,02,50,7.60
2016,04,08,02,51,7.60
2016,04,08,02,52,7.60
2016,04,08,02,53,7.60
2016,04,08,02,54,7.60
2016,04,08,02,55,7.60
2016,04,08,02,56,7.50
2016,04,08,02,57,7.50
2016,04,08,02,58,7.50
2016,04,08,02,59,7.50
2016,04,08,03,00,7.40
2016,04,08,03,01,7.50
2016,04,08,03,02,7.40
2016,04,08,03,03,7.40
2016,04,08,03,04,7.40
2016,04,08,03,05,7.40
2016,04,08,03,06,7.40
2016,04,08,03,07,7.40
2016,04,08,03,08,7.40
2016,04,08,03,09,7.40
2016,04,08,03,10,7.40
2016,04,08,03,11,7.40
2016,04,08,03,12,7.40
2016,04,08,03,13,7.40
2016,04,08,03,14,7.40
2016,04,08,03,15,7.40
2016,04,08,03,16,7.30
2016,04,08,03,17,7.30
2016,04,08,03,18,7.30
2016,04,08,03,19,7.30
2016,04,08,03,20,7.30
2016,04,08,03,21,7.20
2016,04,08,03,22,7.20
2016,04,08,03,23,7.20
2016,04,08,03,24,7.20
2016,04,08,03,25,7.20
2016,04,08,03,26,7.20
2016,04,08,03,27,7.20
2016,04,08,03,28,7.20
2016,04,08,03,29,7.20
2016,04,08,03,30,7.20
2016,04,08,03,31,7.20
2016,04,08,03,32,7.20
2016,04,08,03,33,7.20
2016,04,08,03,34,7.10
2016,04,08,03,35,7.10
2016,04,08,03,36,7.10
2016,04,08,03,37,7.10
2016,04,08,03,38,7.10
2016,04,08,03,39,7.10
2016,04,08,03,40,7.10
2016,04,08,03,41,7.10
2016,04,08,03,42,7.00
2016,04,08,03,43,7.00
2016,04,08,03,44,7.00
2016,04,08,03,45,7.00
2016,04,08,03,46,6.90
2016,04,08,03,47,6.90
2016,04,08,03,48,6.90
2016,04,08,03,49,6.90
2016,04,08,03,50,6.90
2016,04,08,03,51,6.90
2016,04,08,03,52,6.80
2016,04,08,03,53,6.80
2016,04,08,03,54,6.80
2016,04,08,03,55,6.80
2016,04,08,03,56,6.80
2016,04,08,03,57,6.80
2016,04,08,03,58,6.80
2016,04,08,03,59,6.80
2016,04,08,04,00,6.80
2016,04,08,04,01,6.80
2016,04,08,04,02,6.80
2016,04,08,04,03,6.90
2016,04,08,04,04,6.90
2016,04,08,04,05,6.90
2016,04,08,04,06,6.90
2016,04,08,04,07,6.90
2016,04,08,04,08,6.90
2016,04,08,04,09,6.90
2016,04,08,04,10,6.90
2016,04,08,04,11,6.90
2016,04,08,04,12,6.90
2016,04,08,04,13,6.80
2016,04,08,04,14,6.80
2016,04,08,04,15,6.80
2016,04,08,04,16,6.80
2016,04,08,04,17,6.80
2016,04,08,04,18,6.80
2016,04,08,04,19,6.80
2016,04,08,04,20,6.70
2016,04,08,04,21,6.70
2016,04,08,04,22,6.70
2016,04,08,04,23,6.70
2016,04,08,04,24,6.70
2016,04,08,04,25,6.70
2016,04,08,04,26,6.70
2016,04,08,04,27,6.70
2016,04,08,04,28,6.80
2016,04,08,04,29,6.80
2016,04,08,04,30,6.80
2016,04,08,04,31,6.80
2016,04,08,04,32,6.90
2016,04,08,04,33,6.90
2016,04,08,04,34,6.90
2016,04,08,04,35,6.90
2016,04,08,04,36,6.90
2016,04,08,04,37,6.90
2016,04,08,04,38,6.90
2016,04,08,04,39,6.80
2016,04,08,04,40,6.80
2016,04,08,04,41,6.80
2016,04,08,04,42,6.80
2016,04,08,04,43,6.80
2016,04,08,04,44,6.80
2016,04,08,04,45,6.70
2016,04,08,04,46,6.70
2016,04,08,04,47,6.70
2016,04,08,04,48,6.70
2016,04,08,04,49,6.70
2016,04,08,04,50,6.70
2016,04,08,04,51,6.70
2016,04,08,04,52,6.70
2016,04,08,04,53,6.60
2016,04,08,04,54,6.60
2016,04,08,04,55,6.60
2016,04,08,04,56,6.60
2016,04,08,04,57,6.60
2016,04,08,04,58,6.60
2016,04,08,04,59,6.60
2016,04,08,05,00,6.60
2016,04,08,05,01,6.60
2016,04,08,05,02,6.50
2016,04,08,05,03,6.50
2016,04,08,05,04,6.50
2016,04,08,05,05,6.50
2016,04,08,05,06,6.50
2016,04,08,05,07,6.50
2016,04,08,05,08,6.40
2016,04,08,05,09,6.40
2016,04,08,05,10,6.40
2016,04,08,05,11,6.40
2016,04,08,05,12,6.40
2016,04,08,05,13,6.40
2016,04,08,05,14,6.40
2016,04,08,05,15,6.40
2016,04,08,05,16,6.40
2016,04,08,05,17,6.40
2016,04,08,05,18,6.40
2016,04,08,05,19,6.40
2016,04,08,05,20,6.40
2016,04,08,05,21,6.40
2016,04,08,05,22,6.40
2016,04,08,05,23,6.40
2016,04,08,05,24,6.40
2016,04,08,05,25,6.40
2016,04,08,05,26,6.40
2016,04,08,05,27,6.40
2016,04,08,05,28,6.40
2016,04,08,05,29,6.40
2016,04,08,05,30,6.40
2016,04,08,05,31,6.40
2016,04,08,05,32,6.50
2016,04,08,05,33,6.50
2016,04,08,05,34,6.50
2016,04,08,05,35,6.50
2016,04,08,05,36,6.50
2016,04,08,05,37,6.50
2016,04,08,05,38,6.40
2016,04,08,05,39,6.40
2016,04,08,05,40,6.40
2016,04,08,05,41,6.40
2016,04,08,05,42,6.40
2016,04,08,05,43,6.40
2016,04,08,05,44,6.40
2016,04,08,05,45,6.40
2016,04,08,05,46,6.40
2016,04,08,05,47,6.40
2016,04,08,05,48,6.40
2016,04,08,05,49,6.40
2016,04,08,05,50,6.40
2016,04,08,05,51,6.40
2016,04,08,05,52,6.40
2016,04,08,05,53,6.40
2016,04,08,05,54,6.40
2016,04,08,05,55,6.40
2016,04,08,05,56,6.40
2016,04,08,05,57,6.40
2016,04,08,05,58,6.40
2016,04,08,05,59,6.40
2016,04,08,06,00,6.40
2016,04,08,06,01,6.40
2016,04,08,06,02,6.40
2016,04,08,06,03,6.40
2016,04,08,06,04,6.50
2016,04,08,06,05,6.50
2016,04,08,06,06,6.50
2016,04,08,06,07,6.50
2016,04,08,06,08,6.50
2016,04,08,06,09,6.50
2016,04,08,06,10,6.50
2016,04,08,06,11,6.50
2016,04,08,06,12,6.50
2016,04,08,06,13,6.40
2016,04,08,06,14,6.40
2016,04,08,06,15,6.40
2016,04,08,06,16,6.40
2016,04,08,06,17,6.40
2016,04,08,06,18,6.40
2016,04,08,06,19,6.40
2016,04,08,06,20,6.40
2016,04,08,06,21,6.40
2016,04,08,06,22,6.40
2016,04,08,06,23,6.30
2016,04,08,06,24,6.30
2016,04,08,06,25,6.30
2016,04,08,06,26,6.30
2016,04,08,06,27,6.30
2016,04,08,06,28,6.30
2016,04,08,06,29,6.30
2016,04,08,06,30,6.30
2016,04,08,06,31,6.20
2016,04,08,06,32,6.20
2016,04,08,06,33,6.30
2016,04,08,06,34,6.20
2016,04,08,06,35,6.20
2016,04,08,06,36,6.20
2016,04,08,06,37,6.20
2016,04,08,06,38,6.20
2016,04,08,06,39,6.20
2016,04,08,06,40,6.20
2016,04,08,06,41,6.30
2016,04,08,06,42,6.30
2016,04,08,06,43,6.30
2016,04,08,06,44,6.30
2016,04,08,06,45,6.30
2016,04,08,06,46,6.30
2016,04,08,06,47,6.20
2016,04,08,06,48,6.20
2016,04,08,06,49,6.20
2016,04,08,06,50,6.20
2016,04,08,06,51,6.20
2016,04,08,06,52,6.10
2016,04,08,06,53,6.10
2016,04,08,06,54,6.10
2016,04,08,06,55,6.10
2016,04,08,06,56,6.10
2016,04,08,06,57,6.10
2016,04,08,06,58,6.10
2016,04,08,06,59,6.10
2016,04,08,07,00,6.20
2016,04,08,07,01,6.20
2016,04,08,07,02,6.20
2016,04,08,07,03,6.30
2016,04,08,07,04,6.30
2016,04,08,07,05,6.40
2016,04,08,07,06,6.40
2016,04,08,07,07,6.50
2016,04,08,07,08,6.50
2016,04,08,07,09,6.50
2016,04,08,07,10,6.50
2016,04,08,07,11,6.50
2016,04,08,07,12,6.50
2016,04,08,07,13,6.50
2016,04,08,07,14,6.40
2016,04,08,07,15,6.40
2016,04,08,07,16,6.40
2016,04,08,07,17,6.40
2016,04,08,07,18,6.30
2016,04,08,07,19,6.30
2016,04,08,07,20,6.30
2016,04,08,07,21,6.20
2016,04,08,07,22,6.20
2016,04,08,07,23,6.20
2016,04,08,07,24,6.20
2016,04,08,07,25,6.20
2016,04,08,07,26,6.20
2016,04,08,07,27,6.20
2016,04,08,07,28,6.20
2016,04,08,07,29,6.20
2016,04,08,07,30,6.20
2016,04,08,07,31,6.20
2016,04,08,07,32,6.20
2016,04,08,07,33,6.20
2016,04,08,07,34,6.30
2016,04,08,07,35,6.30
2016,04,08,07,36,6.30
2016,04,08,07,37,6.30
2016,04,08,07,38,6.30
2016,04,08,07,39,6.30
2016,04,08,07,40,6.40
2016,04,08,07,41,6.40
2016,04,08,07,42,6.40
2016,04,08,07,43,6.40
2016,04,08,07,44,6.40
2016,04,08,07,45,6.40
2016,04,08,07,46,6.40
2016,04,08,07,47,6.40
2016,04,08,07,48,6.50
2016,04,08,07,49,6.50
2016,04,08,07,50,6.50
2016,04,08,07,51,6.60
2016,04,08,07,52,6.70
2016,04,08,07,53,6.70
2016,04,08,07,54,6.80
2016,04,08,07,55,6.80
2016,04,08,07,56,6.80
2016,04,08,07,57,6.80
2016,04,08,07,58,6.90
2016,04,08,07,59,6.90
2016,04,08,08,00,7.00
2016,04,08,08,01,7.00
2016,04,08,08,02,7.10
2016,04,08,08,03,7.10
2016,04,08,08,04,7.20
2016,04,08,08,05,7.20
2016,04,08,08,06,7.20
2016,04,08,08,07,7.30
2016,04,08,08,08,7.40
2016,04,08,08,09,7.40
2016,04,08,08,10,7.50
2016,04,08,08,11,7.60
2016,04,08,08,12,7.70
2016,04,08,08,13,7.80
2016,04,08,08,14,7.80
2016,04,08,08,15,7.90
2016,04,08,08,16,8.00
2016,04,08,08,17,8.00
2016,04,08,08,18,8.10
2016,04,08,08,19,8.20
2016,04,08,08,20,8.20
2016,04,08,08,21,8.30
2016,04,08,08,22,8.30
2016,04,08,08,23,8.40
2016,04,08,08,24,8.40
2016,04,08,08,25,8.50
2016,04,08,08,26,8.50
2016,04,08,08,27,8.60
2016,04,08,08,28,8.70
2016,04,08,08,29,8.70
2016,04,08,08,30,8.80
2016,04,08,08,31,8.80
2016,04,08,08,32,8.90
2016,04,08,08,33,9.00
2016,04,08,08,34,9.10
2016,04,08,08,35,9.10
2016,04,08,08,36,9.20
2016,04,08,08,37,9.30
2016,04,08,08,38,9.30
2016,04,08,08,39,9.40
2016,04,08,08,40,9.40
2016,04,08,08,41,9.50
2016,04,08,08,42,9.60
2016,04,08,08,43,9.60
2016,04,08,08,44,9.60
2016,04,08,08,45,9.70
2016,04,08,08,46,9.70
2016,04,08,08,47,9.80
2016,04,08,08,48,9.80
2016,04,08,08,49,9.90
2016,04,08,08,50,10.00
2016,04,08,08,51,10.00
2016,04,08,08,52,10.10
2016,04,08,08,53,10.20
2016,04,08,08,54,10.30
2016,04,08,08,55,10.40
2016,04,08,08,56,10.40
2016,04,08,08,57,10.50
2016,04,08,08,58,10.60
2016,04,08,08,59,10.70
2016,04,08,09,00,10.70
2016,04,08,09,01,10.80
2016,04,08,09,02,10.90
2016,04,08,09,03,11.10
2016,04,08,09,04,11.20
2016,04,08,09,05,11.30
2016,04,08,09,06,11.30
2016,04,08,09,07,11.50
2016,04,08,09,08,11.50
2016,04,08,09,09,11.70
2016,04,08,09,10,11.80
2016,04,08,09,11,11.90
2016,04,08,09,12,12.00
2016,04,08,09,13,12.10
2016,04,08,09,14,12.20
2016,04,08,09,15,12.30
2016,04,08,09,16,12.40
2016,04,08,09,17,12.50
2016,04,08,09,18,12.60
2016,04,08,09,19,12.70
2016,04,08,09,20,12.80
2016,04,08,09,21,12.90
2016,04,08,09,22,13.00
2016,04,08,09,23,13.20
2016,04,08,09,24,13.20
2016,04,08,09,25,13.30
2016,04,08,09,26,13.40
2016,04,08,09,27,13.50
2016,04,08,09,28,13.60
2016,04,08,09,29,13.70
2016,04,08,09,30,13.80
2016,04,08,09,31,13.90
2016,04,08,09,32,13.90
2016,04,08,09,33,14.00
2016,04,08,09,34,14.10
2016,04,08,09,35,14.20
2016,04,08,09,36,14.30
2016,04,08,09,37,14.40
2016,04,08,09,38,14.50
2016,04,08,09,39,14.60
2016,04,08,09,40,14.60
2016,04,08,09,41,14.70
2016,04,08,09,42,14.80
2016,04,08,09,43,14.90
2016,04,08,09,44,15.00
2016,04,08,09,45,15.00
2016,04,08,09,46,15.00
2016,04,08,09,47,15.00
2016,04,08,09,48,15.00
2016,04,08,09,49,15.10
2016,04,08,09,50,15.20
2016,04,08,09,51,15.30
2016,04,08,09,52,15.30
2016,04,08,09,53,15.40
2016,04,08,09,54,15.40
2016,04,08,09,55,15.50
2016,04,08,09,56,15.50
2016,04,08,09,57,15.60
2016,04,08,09,58,15.60
2016,04,08,09,59,15.60
2016,04,08,10,00,15.70
2016,04,08,10,01,15.70
2016,04,08,10,02,15.80
2016,04,08,10,03,15.80
2016,04,08,10,04,15.90
2016,04,08,10,05,15.90
2016,04,08,10,06,15.90
2016,04,08,10,07,15.80
2016,04,08,10,08,15.80
2016,04,08,10,09,15.80
2016,04,08,10,10,15.70
2016,04,08,10,11,15.70
2016,04,08,10,12,15.80
2016,04,08,10,13,15.80
2016,04,08,10,14,15.80
2016,04,08,10,15,15.80
2016,04,08,10,16,15.90
2016,04,08,10,17,16.00
2016,04,08,10,18,16.10
2016,04,08,10,19,16.10
2016,04,08,10,20,16.20
2016,04,08,10,21,16.20
2016,04,08,10,22,16.30
2016,04,08,10,23,16.30
2016,04,08,10,24,16.40
2016,04,08,10,25,16.60
2016,04,08,10,26,16.60
2016,04,08,10,27,16.70
2016,04,08,10,28,16.80
2016,04,08,10,29,16.80
2016,04,08,10,30,16.90
2016,04,08,10,31,17.00
2016,04,08,10,32,17.10
2016,04,08,10,33,17.20
2016,04,08,10,34,17.20
2016,04,08,10,35,17.30
2016,04,08,10,36,17.30
2016,04,08,10,37,17.30
2016,04,08,10,38,17.40
2016,04,08,10,39,17.40
2016,04,08,10,40,17.40
2016,04,08,10,41,17.50
2016,04,08,10,42,17.60
2016,04,08,10,43,17.70
2016,04,08,10,44,17.70
2016,04,08,10,45,17.80
2016,04,08,10,46,17.80
2016,04,08,10,47,17.80
2016,04,08,10,48,17.80
2016,04,08,10,49,17.80
2016,04,08,10,50,17.80
2016,04,08,10,51,17.90
2016,04,08,10,52,17.90
2016,04,08,10,53,18.00
2016,04,08,10,54,18.00
2016,04,08,10,55,18.10
2016,04,08,10,56,18.20
2016,04,08,10,57,18.20
2016,04,08,10,58,18.30
2016,04,08,10,59,18.40
2016,04,08,11,00,18.50
2016,04,08,11,01,18.60
2016,04,08,11,02,18.70
2016,04,08,11,03,18.80
2016,04,08,11,04,18.90
2016,04,08,11,05,19.00
2016,04,08,11,06,19.10
2016,04,08,11,07,19.10
2016,04,08,11,08,19.10
2016,04,08,11,09,19.10
2016,04,08,11,10,19.20
2016,04,08,11,11,19.20
2016,04,08,11,12,19.20
2016,04,08,11,13,19.20
2016,04,08,11,14,19.20
2016,04,08,11,15,19.20
2016,04,08,11,16,19.20
2016,04,08,11,17,19.20
2016,04,08,11,18,19.20
2016,04,08,11,19,19.20
2016,04,08,11,20,19.20
2016,04,08,11,21,19.20
2016,04,08,11,22,19.20
2016,04,08,11,23,19.20
2016,04,08,11,24,19.20
2016,04,08,11,25,19.20
2016,04,08,11,26,19.30
2016,04,08,11,27,19.40
2016,04,08,11,28,19.40
2016,04,08,11,29,19.40
2016,04,08,11,30,19.40
2016,04,08,11,31,19.40
2016,04,08,11,32,19.40
2016,04,08,11,33,19.30
2016,04,08,11,34,19.30
2016,04,08,11,35,19.20
2016,04,08,11,36,19.20
2016,04,08,11,37,19.20
2016,04,08,11,38,19.20
2016,04,08,11,39,19.20
2016,04,08,11,40,19.20
2016,04,08,11,41,19.30
2016,04,08,11,42,19.40
2016,04,08,11,43,19.40
2016,04,08,11,44,19.50
2016,04,08,11,45,19.60
2016,04,08,11,46,19.70
2016,04,08,11,47,19.80
2016,04,08,11,48,19.90
2016,04,08,11,49,20.00
2016,04,08,11,50,20.10
2016,04,08,11,51,20.20
2016,04,08,11,52,20.20
2016,04,08,11,53,20.30
2016,04,08,11,54,20.30
2016,04,08,11,55,20.40
2016,04,08,11,56,20.40
2016,04,08,11,57,20.40
2016,04,08,11,58,20.40
2016,04,08,11,59,20.50
2016,04,08,12,00,20.50
2016,04,08,12,01,20.60
2016,04,08,12,02,20.60
2016,04,08,12,03,20.60
2016,04,08,12,04,20.60
2016,04,08,12,05,20.70
2016,04,08,12,06,20.70
2016,04,08,12,07,20.70
2016,04,08,12,08,20.70
2016,04,08,12,09,20.70
2016,04,08,12,10,20.70
2016,04,08,12,11,20.70
2016,04,08,12,12,20.70
2016,04,08,12,13,20.80
2016,04,08,12,14,20.80
2016,04,08,12,15,20.80
2016,04,08,12,16,20.80
2016,04,08,12,17,20.70
2016,04,08,12,18,20.70
2016,04,08,12,19,20.70
2016,04,08,12,20,20.70
2016,04,08,12,21,20.60
2016,04,08,12,22,20.60
2016,04,08,12,23,20.60
2016,04,08,12,24,20.50
2016,04,08,12,25,20.50
2016,04,08,12,26,20.60
2016,04,08,12,27,20.60
2016,04,08,12,28,20.70
2016,04,08,12,29,20.70
2016,04,08,12,30,20.70
2016,04,08,12,31,20.70
2016,04,08,12,32,20.70
2016,04,08,12,33,20.70
2016,04,08,12,34,20.80
2016,04,08,12,35,20.80
2016,04,08,12,36,20.90
2016,04,08,12,37,20.90
2016,04,08,12,38,20.90
2016,04,08,12,39,20.90
2016,04,08,12,40,20.90
2016,04,08,12,41,20.90
2016,04,08,12,42,20.90
2016,04,08,12,43,20.90
2016,04,08,12,44,20.90
2016,04,08,12,45,20.90
2016,04,08,12,46,20.90
2016,04,08,12,47,21.00
2016,04,08,12,48,21.00
2016,04,08,12,49,21.10
2016,04,08,12,50,21.20
2016,04,08,12,51,21.30
2016,04,08,12,52,21.40
2016,04,08,12,53,21.40
2016,04,08,12,54,21.40
2016,04,08,12,55,21.40
2016,04,08,12,56,21.30
2016,04,08,12,57,21.20
2016,04,08,12,58,21.20
2016,04,08,12,59,21.20
2016,04,08,13,00,21.20
2016,04,08,13,01,21.30
2016,04,08,13,02,21.30
2016,04,08,13,03,21.40
2016,04,08,13,04,21.40
2016,04,08,13,05,21.50
2016,04,08,13,06,21.60
2016,04,08,13,07,21.60
2016,04,08,13,08,21.60
2016,04,08,13,09,21.60
2016,04,08,13,10,21.60
2016,04,08,13,11,21.70
2016,04,08,13,12,21.70
2016,04,08,13,13,21.70
2016,04,08,13,14,21.80
2016,04,08,13,15,21.80
2016,04,08,13,16,21.80
2016,04,08,13,17,21.90
2016,04,08,13,18,21.90
2016,04,08,13,19,21.90
2016,04,08,13,20,22.00
2016,04,08,13,21,22.00
2016,04,08,13,22,22.00
2016,04,08,13,23,22.10
2016,04,08,13,24,22.20
2016,04,08,13,25,22.20
2016,04,08,13,26,22.30
2016,04,08,13,27,22.30
2016,04,08,13,28,22.30
2016,04,08,13,29,22.40
2016,04,08,13,30,22.40
2016,04,08,13,31,22.40
2016,04,08,13,32,22.50
2016,04,08,13,33,22.50
2016,04,08,13,34,22.60
2016,04,08,13,35,22.70
2016,04,08,13,36,22.70
2016,04,08,13,37,22.80
2016,04,08,13,38,22.90
2016,04,08,13,39,23.00
2016,04,08,13,40,23.10
2016,04,08,13,41,23.20
2016,04,08,13,42,23.40
2016,04,08,13,43,23.50
2016,04,08,13,44,23.60
2016,04,08,13,45,23.70
2016,04,08,13,46,23.80
2016,04,08,13,47,23.90
2016,04,08,13,48,24.10
2016,04,08,13,49,24.20
2016,04,08,13,50,24.20
2016,04,08,13,51,24.30
2016,04,08,13,52,24.30
2016,04,08,13,53,24.20
2016,04,08,13,54,24.10
2016,04,08,13,55,24.00
2016,04,08,13,56,24.00
2016,04,08,13,57,23.90
2016,04,08,13,58,23.90
2016,04,08,13,59,23.90
2016,04,08,14,00,24.00
2016,04,08,14,01,24.10
2016,04,08,14,02,24.10
2016,04,08,14,03,24.10
2016,04,08,14,04,24.10
2016,04,08,14,05,24.00
2016,04,08,14,06,24.00
2016,04,08,14,07,24.00
2016,04,08,14,08,23.90
2016,04,08,14,09,23.90
2016,04,08,14,10,23.90
2016,04,08,14,11,23.90
2016,04,08,14,12,24.00
2016,04,08,14,13,24.00
2016,04,08,14,14,24.10
2016,04,08,14,15,24.10
2016,04,08,14,16,24.00
2016,04,08,14,17,23.90
2016,04,08,14,18,23.80
2016,04,08,14,19,23.80
2016,04,08,14,20,23.80
2016,04,08,14,21,23.80
2016,04,08,14,22,23.80
2016,04,08,14,23,23.70
2016,04,08,14,24,23.70
2016,04,08,14,25,23.70
2016,04,08,14,26,23.70
2016,04,08,14,27,23.80
2016,04,08,14,28,23.70
2016,04,08,14,29,23.80
2016,04,08,14,30,23.80
2016,04,08,14,31,23.80
2016,04,08,14,32,23.90
2016,04,08,14,33,24.00
2016,04,08,14,34,24.10
2016,04,08,14,35,24.20
2016,04,08,14,36,24.20
2016,04,08,14,37,24.20
2016,04,08,14,38,24.20
2016,04,08,14,39,24.20
2016,04,08,14,40,24.30
2016,04,08,14,41,24.30
2016,04,08,14,42,24.40
2016,04,08,14,43,24.40
2016,04,08,14,44,24.40
2016,04,08,14,45,24.40
2016,04,08,14,46,24.40
2016,04,08,14,47,24.40
2016,04,08,14,48,24.40
2016,04,08,14,49,24.50
2016,04,08,14,50,24.50
2016,04,08,14,51,24.50
2016,04,08,14,52,24.50
2016,04,08,14,53,24.50
2016,04,08,14,54,24.40
2016,04,08,14,55,24.30
2016,04,08,14,56,24.30
2016,04,08,14,57,24.30
2016,04,08,14,58,24.30
2016,04,08,14,59,24.30
2016,04,08,15,00,24.40
2016,04,08,15,01,24.30
2016,04,08,15,02,24.30
2016,04,08,15,03,24.30
2016,04,08,15,04,24.20
2016,04,08,15,05,24.20
2016,04,08,15,06,24.20
2016,04,08,15,07,24.10
2016,04,08,15,08,24.10
2016,04,08,15,09,24.20
2016,04,08,15,10,24.20
2016,04,08,15,11,24.20
2016,04,08,15,12,24.20
2016,04,08,15,13,24.20
2016,04,08,15,14,24.20
2016,04,08,15,15,24.20
2016,04,08,15,16,24.30
2016,04,08,15,17,24.30
2016,04,08,15,18,24.30
2016,04,08,15,19,24.30
2016,04,08,15,20,24.30
2016,04,08,15,21,24.30
2016,04,08,15,22,24.40
2016,04,08,15,23,24.40
2016,04,08,15,24,24.30
2016,04,08,15,25,24.30
2016,04,08,15,26,24.30
2016,04,08,15,27,24.30
2016,04,08,15,28,24.20
2016,04,08,15,29,24.20
2016,04,08,15,30,24.20
2016,04,08,15,31,24.20
2016,04,08,15,32,24.10
2016,04,08,15,33,24.00
2016,04,08,15,34,23.80
2016,04,08,15,35,23.80
2016,04,08,15,36,23.70
2016,04,08,15,37,23.70
2016,04,08,15,38,23.70
2016,04,08,15,39,23.60
2016,04,08,15,40,23.50
2016,04,08,15,41,23.50
2016,04,08,15,42,23.50
2016,04,08,15,43,23.50
2016,04,08,15,44,23.50
2016,04,08,15,45,23.40
2016,04,08,15,46,23.50
2016,04,08,15,47,23.50
2016,04,08,15,48,23.50
2016,04,08,15,49,23.50
2016,04,08,15,50,23.60
2016,04,08,15,51,23.60
2016,04,08,15,52,23.60
2016,04,08,15,53,23.70
2016,04,08,15,54,23.70
2016,04,08,15,55,23.70
2016,04,08,15,56,23.80
2016,04,08,15,57,23.70
2016,04,08,15,58,23.70
2016,04,08,15,59,23.70
2016,04,08,16,00,23.70
2016,04,08,16,01,23.70
2016,04,08,16,02,23.60
2016,04,08,16,03,23.60
2016,04,08,16,04,23.50
2016,04,08,16,05,23.50
2016,04,08,16,06,23.60
2016,04,08,16,07,23.60
2016,04,08,16,08,23.50
2016,04,08,16,09,23.50
2016,04,08,16,10,23.50
2016,04,08,16,11,23.50
2016,04,08,16,12,23.60
2016,04,08,16,13,23.60
2016,04,08,16,14,23.70
2016,04,08,16,15,23.70
2016,04,08,16,16,23.70
2016,04,08,16,17,23.80
2016,04,08,16,18,23.80
2016,04,08,16,19,23.90
2016,04,08,16,20,24.00
2016,04,08,16,21,24.00
2016,04,08,16,22,24.00
2016,04,08,16,23,24.00
2016,04,08,16,24,24.00
2016,04,08,16,25,24.00
2016,04,08,16,26,23.90
2016,04,08,16,27,23.80
2016,04,08,16,28,23.70
2016,04,08,16,29,23.70
2016,04,08,16,30,23.70
2016,04,08,16,31,23.70
2016,04,08,16,32,23.70
2016,04,08,16,33,23.70
2016,04,08,16,34,23.70
2016,04,08,16,35,23.70
2016,04,08,16,36,23.70
2016,04,08,16,37,23.70
2016,04,08,16,38,23.70
2016,04,08,16,39,23.70
2016,04,08,16,40,23.70
2016,04,08,16,41,23.70
2016,04,08,16,42,23.70
2016,04,08,16,43,23.70
2016,04,08,16,44,23.70
2016,04,08,16,45,23.70
2016,04,08,16,46,23.70
2016,04,08,16,47,23.70
2016,04,08,16,48,23.70
2016,04,08,16,49,23.70
2016,04,08,16,50,23.70
2016,04,08,16,51,23.80
2016,04,08,16,52,23.80
2016,04,08,16,53,23.90
2016,04,08,16,54,23.90
2016,04,08,16,55,23.90
2016,04,08,16,56,23.90
2016,04,08,16,57,23.90
2016,04,08,16,58,23.90
2016,04,08,16,59,23.80
2016,04,08,17,00,23.80
2016,04,08,17,01,23.80
2016,04,08,17,02,23.80
2016,04,08,17,03,23.70
2016,04,08,17,04,23.70
2016,04,08,17,05,23.70
2016,04,08,17,06,23.70
2016,04,08,17,07,23.60
2016,04,08,17,08,23.60
2016,04,08,17,09,23.60
2016,04,08,17,10,23.60
2016,04,08,17,11,23.50
2016,04,08,17,12,23.50
2016,04,08,17,13,23.40
2016,04,08,17,14,23.30
2016,04,08,17,15,23.40
2016,04,08,17,16,23.40
2016,04,08,17,17,23.40
2016,04,08,17,18,23.40
2016,04,08,17,19,23.40
2016,04,08,17,20,23.30
2016,04,08,17,21,23.30
2016,04,08,17,22,23.30
2016,04,08,17,23,23.30
2016,04,08,17,24,23.30
2016,04,08,17,25,23.40
2016,04,08,17,26,23.40
2016,04,08,17,27,23.30
2016,04,08,17,28,23.30
2016,04,08,17,29,23.30
2016,04,08,17,30,23.30
2016,04,08,17,31,23.20
2016,04,08,17,32,23.20
2016,04,08,17,33,23.20
2016,04,08,17,34,23.20
2016,04,08,17,35,23.20
2016,04,08,17,36,23.10
2016,04,08,17,37,23.10
2016,04,08,17,38,23.00
2016,04,08,17,39,23.00
2016,04,08,17,40,23.00
2016,04,08,17,41,23.00
2016,04,08,17,42,23.00